| time (UTC) | temp C | wind direction | speed KPH | gust KPH | rain 1hr cm | rain 24hr cm | rain mn cm | humidity % | barometer mb |
| 20260509123723 | 12 | 226 | 8.0 | 25.7 | 0.00 | 0.00 | 0.00 | 68 | 998.1 |
| 20260509123239 | 12 | 205 | 12.9 | 32.2 | 0.00 | 0.00 | 0.00 | 68 | 997.7 |
| 20260509122739 | 12 | 190 | 16.1 | 32.2 | 0.00 | 0.00 | 0.00 | 67 | 997.6 |
| 20260509122244 | 12 | 193 | 11.3 | 27.4 | 0.00 | 0.00 | 0.00 | 67 | 997.6 |
| 20260509121730 | 12 | 202 | 12.9 | 27.4 | 0.00 | 0.00 | 0.00 | 67 | 997.7 |
| 20260509121236 | 12 | 180 | 11.3 | 25.7 | 0.00 | 0.00 | 0.00 | 66 | 997.7 |
| 20260509120722 | 12 | 190 | 14.5 | 29.0 | 0.00 | 0.00 | 0.00 | 66 | 997.7 |
| 20260509120238 | 12 | 196 | 12.9 | 29.0 | 0.00 | 0.00 | 0.00 | 66 | 997.8 |
| 20260509115717 | 12 | 192 | 12.9 | 25.7 | 0.00 | 0.00 | 0.00 | 65 | 997.8 |
| 20260509115231 | 12 | 196 | 9.7 | 27.4 | 0.00 | 0.00 | 0.00 | 65 | 997.8 |
| 20260509114719 | 11 | 174 | 14.5 | 24.1 | 0.00 | 0.00 | 0.00 | 65 | 997.8 |
| 20260509114216 | 11 | 194 | 11.3 | 24.1 | 0.00 | 0.00 | 0.00 | 65 | 997.9 |
| 20260509113729 | 11 | 183 | 8.0 | 17.7 | 0.00 | 0.00 | 0.00 | 64 | 997.9 |
| 20260509113237 | 11 | 174 | 9.7 | 16.1 | 0.00 | 0.00 | 0.00 | 64 | 997.8 |
| 20260509112737 | 11 | 170 | 6.4 | 17.7 | 0.00 | 0.00 | 0.00 | 64 | 997.9 |
| 20260509112226 | 11 | 171 | 6.4 | 22.5 | 0.00 | 0.00 | 0.00 | 63 | 997.8 |
| 20260509111742 | 11 | 150 | 8.0 | 22.5 | 0.00 | 0.00 | 0.00 | 62 | 997.8 |
| 20260509111231 | 11 | 151 | 14.5 | 20.9 | 0.00 | 0.00 | 0.00 | 61 | 997.8 |
| 20260509110719 | 11 | 146 | 9.7 | 17.7 | 0.00 | 0.00 | 0.00 | 61 | 997.8 |
| 20260509110236 | 11 | 154 | 12.9 | 16.1 | 0.00 | 0.00 | 0.00 | 61 | 997.9 |
| 20260509105730 | 11 | 167 | 6.4 | 19.3 | 0.00 | 0.00 | 0.00 | 61 | 998.1 |
| 20260509105239 | 11 | 167 | 8.0 | 19.3 | 0.00 | 0.00 | 0.00 | 61 | 998.3 |
| 20260509104728 | 11 | 173 | 8.0 | 16.1 | 0.00 | 0.00 | 0.00 | 60 | 998.2 |
| 20260509104236 | 11 | 175 | 8.0 | 16.1 | 0.00 | 0.00 | 0.00 | 60 | 998.3 |
| 20260509103721 | 11 | 180 | 9.7 | 16.1 | 0.00 | 0.00 | 0.00 | 59 | 998.3 |
| 20260509103234 | 11 | 174 | 8.0 | 19.3 | 0.00 | 0.00 | 0.00 | 59 | 998.4 |
| 20260509102735 | 11 | 180 | 11.3 | 19.3 | 0.00 | 0.00 | 0.00 | 59 | 998.4 |
| 20260509102220 | 11 | 174 | 6.4 | 12.9 | 0.00 | 0.00 | 0.00 | 58 | 998.5 |
| 20260509101733 | 11 | 164 | 8.0 | 16.1 | 0.00 | 0.00 | 0.00 | 58 | 998.5 |
| 20260509101240 | 11 | 182 | 9.7 | 16.1 | 0.00 | 0.00 | 0.00 | 56 | 998.7 |
| 20260509100729 | 11 | 168 | 8.0 | 12.9 | 0.00 | 0.00 | 0.00 | 56 | 998.7 |
| 20260509100218 | 11 | 168 | 8.0 | 12.9 | 0.00 | 0.00 | 0.00 | 55 | 998.8 |
| 20260509095725 | 11 | 161 | 8.0 | 12.9 | 0.00 | 0.00 | 0.00 | 55 | 999.0 |
| 20260509095241 | 11 | 169 | 4.8 | 14.5 | 0.00 | 0.00 | 0.00 | 54 | 999.1 |
| 20260509094728 | 11 | 167 | 8.0 | 20.9 | 0.00 | 0.00 | 0.00 | 54 | 999.1 |
| 20260509094244 | 11 | 169 | 8.0 | 20.9 | 0.00 | 0.00 | 0.00 | 53 | 999.2 |
| 20260509093746 | 11 | 173 | 8.0 | 19.3 | 0.00 | 0.00 | 0.00 | 52 | 999.3 |
| 20260509093231 | 11 | 175 | 6.4 | 16.1 | 0.00 | 0.00 | 0.00 | 52 | 999.4 |
| 20260509092728 | 11 | 192 | 8.0 | 20.9 | 0.00 | 0.00 | 0.00 | 51 | 999.4 |
| 20260509092216 | 11 | 184 | 9.7 | 24.1 | 0.00 | 0.00 | 0.00 | 51 | 999.6 |
| 20260509091731 | 11 | 184 | 9.7 | 24.1 | 0.00 | 0.00 | 0.00 | 51 | 999.7 |
| 20260509091218 | 11 | 182 | 14.5 | 20.9 | 0.00 | 0.00 | 0.00 | 51 | 999.8 |
| 20260509090734 | 11 | 185 | 8.0 | 19.3 | 0.00 | 0.00 | 0.00 | 51 | 999.8 |
| 20260509090218 | 11 | 176 | 9.7 | 19.3 | 0.00 | 0.00 | 0.00 | 51 | 999.8 |
| 20260509085721 | 10 | 182 | 6.4 | 19.3 | 0.00 | 0.00 | 0.00 | 51 | 999.8 |
| 20260509085228 | 10 | 163 | 8.0 | 17.7 | 0.00 | 0.00 | 0.00 | 51 | 999.8 |
| 20260509084735 | 10 | 165 | 6.4 | 14.5 | 0.00 | 0.00 | 0.00 | 51 | 999.9 |
| 20260509084239 | 10 | 169 | 6.4 | 14.5 | 0.00 | 0.00 | 0.00 | 52 | 1000.0 |
| 20260509083726 | 10 | 162 | 4.8 | 14.5 | 0.00 | 0.00 | 0.00 | 52 | 1000.0 |
| 20260509083241 | 10 | 165 | 6.4 | 14.5 | 0.00 | 0.00 | 0.00 | 52 | 1000.0 |
| 20260509082719 | 10 | 169 | 9.7 | 14.5 | 0.00 | 0.00 | 0.00 | 53 | 1000.0 |
| 20260509082235 | 10 | 167 | 9.7 | 12.9 | 0.00 | 0.00 | 0.00 | 54 | 1000.1 |
| 20260509081736 | 10 | 159 | 8.0 | 12.9 | 0.00 | 0.00 | 0.00 | 55 | 1000.2 |
| 20260509081243 | 9 | 162 | 6.4 | 14.5 | 0.00 | 0.00 | 0.00 | 56 | 1000.3 |
| 20260509080729 | 9 | 155 | 9.7 | 17.7 | 0.00 | 0.00 | 0.00 | 56 | 1000.3 |
| 20260509080217 | 9 | 157 | 11.3 | 17.7 | 0.00 | 0.00 | 0.00 | 57 | 1000.3 |
| 20260509075724 | 9 | 160 | 8.0 | 14.5 | 0.00 | 0.00 | 0.00 | 56 | 1000.4 |
| 20260509075240 | 9 | 149 | 11.3 | 16.1 | 0.00 | 0.00 | 0.00 | 58 | 1000.4 |
| 20260509074727 | 9 | 149 | 11.3 | 17.7 | 0.00 | 0.00 | 0.00 | 57 | 1000.5 |
| 20260509074241 | 9 | 148 | 11.3 | 17.7 | 0.00 | 0.00 | 0.00 | 58 | 1000.6 |
| 20260509073743 | 9 | 147 | 14.5 | 17.7 | 0.00 | 0.00 | 0.00 | 57 | 1000.7 |
| 20260509073231 | 10 | 145 | 11.3 | 17.7 | 0.00 | 0.00 | 0.00 | 57 | 1000.8 |
| 20260509072729 | 9 | 149 | 11.3 | 17.7 | 0.00 | 0.00 | 0.00 | 57 | 1000.9 |
| 20260509072236 | 9 | 144 | 11.3 | 17.7 | 0.00 | 0.00 | 0.00 | 57 | 1001.0 |
| 20260509071723 | 9 | 145 | 12.9 | 17.7 | 0.00 | 0.00 | 0.00 | 58 | 1001.1 |
| 20260509071216 | 8 | 146 | 11.3 | 16.1 | 0.00 | 0.00 | 0.00 | 61 | 1001.2 |
| 20260509070732 | 9 | 144 | 9.7 | 16.1 | 0.00 | 0.00 | 0.00 | 61 | 1001.2 |
| 20260509070220 | 9 | 144 | 9.7 | 16.1 | 0.00 | 0.00 | 0.00 | 61 | 1001.4 |
| 20260509065744 | 9 | 144 | 12.9 | 16.1 | 0.00 | 0.00 | 0.00 | 61 | 1001.5 |
| 20260509065231 | 9 | 144 | 9.7 | 14.5 | 0.00 | 0.00 | 0.00 | 61 | 1001.6 |
| 20260509064735 | 8 | 149 | 0.0 | 4.8 | 0.00 | 0.00 | 0.00 | 63 | 1001.7 |
| 20260509064241 | 8 | 143 | 0.0 | 0.0 | 0.00 | 0.00 | 0.00 | 64 | 1001.7 |
| 20260509063725 | 8 | 141 | 0.0 | 0.0 | 0.00 | 0.00 | 0.00 | 66 | 1001.9 |
| 20260509063241 | 8 | 138 | 0.0 | 0.0 | 0.00 | 0.00 | 0.00 | 67 | 1001.9 |
| 20260509062737 | 8 | 140 | 0.0 | 0.0 | 0.00 | 0.00 | 0.00 | 68 | 1002.1 |
| 20260509062239 | 7 | 140 | 0.0 | 0.0 | 0.00 | 0.00 | 0.00 | 70 | 1002.1 |
| 20260509061728 | 7 | 138 | 0.0 | 0.0 | 0.00 | 0.00 | 0.00 | 73 | 1002.2 |
| 20260509061216 | 7 | 134 | 0.0 | 0.0 | 0.00 | 0.00 | 0.00 | 73 | 1002.2 |
| 20260509060733 | 7 | 136 | 0.0 | 0.0 | 0.00 | 0.00 | 0.00 | 74 | 1002.3 |
| 20260509060242 | 7 | 138 | 0.0 | 0.0 | 0.00 | 0.00 | 0.00 | 73 | 1002.3 |
| 20260509055742 | 7 | 139 | 0.0 | 0.0 | 0.00 | 0.00 | 0.00 | 74 | 1002.5 |
| 20260509055231 | 7 | 144 | 0.0 | 0.0 | 0.00 | 0.00 | 0.00 | 76 | 1002.6 |
| 20260509054721 | 7 | 144 | 0.0 | 0.0 | 0.00 | 0.00 | 0.00 | 77 | 1002.7 |
| 20260509054218 | 7 | 144 | 0.0 | 0.0 | 0.00 | 0.00 | 0.00 | 75 | 1002.8 |
| 20260509053732 | 8 | 144 | 0.0 | 0.0 | 0.00 | 0.00 | 0.00 | 76 | 1002.9 |
| 20260509053241 | 7 | 144 | 0.0 | 0.0 | 0.00 | 0.00 | 0.00 | 71 | 1003.1 |
| 20260509052741 | 7 | 144 | 0.0 | 0.0 | 0.00 | 0.00 | 0.00 | 75 | 1003.1 |
| 20260509052228 | 7 | 144 | 0.0 | 0.0 | 0.00 | 0.00 | 0.00 | 73 | 1003.1 |
| 20260509051742 | 7 | 144 | 0.0 | 0.0 | 0.00 | 0.00 | 0.00 | 73 | 1003.2 |
| 20260509051231 | 7 | 144 | 0.0 | 0.0 | 0.00 | 0.00 | 0.00 | 76 | 1003.1 |
| 20260509050719 | 6 | 148 | 0.0 | 0.0 | 0.00 | 0.00 | 0.00 | 78 | 1003.2 |
| 20260509050236 | 6 | 134 | 0.0 | 0.0 | 0.00 | 0.00 | 0.00 | 79 | 1003.3 |
| 20260509045717 | 6 | 251 | 0.0 | 0.0 | 0.00 | 0.00 | 0.00 | 80 | 1003.4 |
| 20260509045229 | 6 | 314 | 0.0 | 0.0 | 0.00 | 0.00 | 0.00 | 81 | 1003.4 |
| 20260509044716 | 6 | 315 | 0.0 | 0.0 | 0.00 | 0.00 | 0.00 | 81 | 1003.4 |
| 20260509044233 | 7 | 315 | 0.0 | 0.0 | 0.00 | 0.00 | 0.00 | 80 | 1003.5 |
| 20260509043721 | 7 | 315 | 0.0 | 0.0 | 0.00 | 0.00 | 0.00 | 78 | 1003.6 |
| 20260509043235 | 7 | 315 | 0.0 | 0.0 | 0.00 | 0.00 | 0.00 | 77 | 1003.7 |
| 20260509042732 | 7 | 315 | 0.0 | 0.0 | 0.00 | 0.00 | 0.00 | 79 | 1003.6 |
| 20260509042221 | 7 | 315 | 0.0 | 0.0 | 0.00 | 0.00 | 0.00 | 77 | 1003.8 |
| 20260509041718 | 7 | 315 | 0.0 | 0.0 | 0.00 | 0.00 | 0.00 | 76 | 1003.9 |
| 20260509041230 | 7 | 315 | 0.0 | 0.0 | 0.00 | 0.00 | 0.00 | 78 | 1004.0 |
| 20260509040736 | 7 | 315 | 0.0 | 0.0 | 0.00 | 0.00 | 0.00 | 79 | 1004.0 |
| 20260509040243 | 7 | 315 | 0.0 | 0.0 | 0.00 | 0.00 | 0.00 | 79 | 1004.1 |
| 20260509035732 | 7 | 315 | 0.0 | 0.0 | 0.00 | 0.00 | 0.00 | 78 | 1004.2 |
| 20260509035219 | 7 | 315 | 0.0 | 0.0 | 0.00 | 0.00 | 0.00 | 79 | 1004.2 |
| 20260509034733 | 7 | 315 | 0.0 | 0.0 | 0.00 | 0.00 | 0.00 | 77 | 1004.2 |
| 20260509034221 | 7 | 315 | 0.0 | 0.0 | 0.00 | 0.00 | 0.00 | 77 | 1004.3 |
| 20260509033719 | 7 | 315 | 0.0 | 0.0 | 0.00 | 0.00 | 0.00 | 80 | 1004.3 |
| 20260509033232 | 7 | 315 | 0.0 | 0.0 | 0.00 | 0.00 | 0.00 | 79 | 1004.3 |
| 20260509032732 | 7 | 315 | 0.0 | 0.0 | 0.00 | 0.00 | 0.00 | 78 | 1004.3 |
| 20260509032241 | 7 | 315 | 0.0 | 0.0 | 0.00 | 0.00 | 0.00 | 78 | 1004.4 |
| 20260509031730 | 7 | 315 | 0.0 | 0.0 | 0.00 | 0.00 | 0.00 | 76 | 1004.5 |
| 20260509031219 | 7 | 315 | 0.0 | 0.0 | 0.00 | 0.00 | 0.00 | 76 | 1004.5 |
| 20260509030716 | 7 | 315 | 0.0 | 0.0 | 0.00 | 0.00 | 0.00 | 77 | 1004.5 |
| 20260509030233 | 7 | 315 | 0.0 | 0.0 | 0.00 | 0.00 | 0.00 | 77 | 1004.6 |
| 20260509025733 | 7 | 315 | 0.0 | 0.0 | 0.00 | 0.00 | 0.00 | 77 | 1004.7 |
| 20260509025236 | 7 | 314 | 0.0 | 0.0 | 0.00 | 0.00 | 0.00 | 76 | 1004.6 |
| 20260509024726 | 7 | 314 | 0.0 | 0.0 | 0.00 | 0.00 | 0.00 | 75 | 1004.7 |
| 20260509024235 | 7 | 314 | 0.0 | 0.0 | 0.00 | 0.00 | 0.00 | 75 | 1004.8 |
| 20260509023743 | 7 | 314 | 0.0 | 0.0 | 0.00 | 0.00 | 0.00 | 73 | 1004.8 |
| 20260509023232 | 7 | 314 | 0.0 | 0.0 | 0.00 | 0.00 | 0.00 | 73 | 1004.9 |
| 20260509022733 | 7 | 314 | 0.0 | 0.0 | 0.00 | 0.00 | 0.00 | 70 | 1004.9 |
| 20260509022220 | 7 | 314 | 0.0 | 0.0 | 0.00 | 0.00 | 0.00 | 71 | 1004.9 |
| 20260509021718 | 7 | 314 | 0.0 | 0.0 | 0.00 | 0.00 | 0.00 | 74 | 1004.9 |
| 20260509021233 | 7 | 313 | 0.0 | 0.0 | 0.00 | 0.00 | 0.00 | 74 | 1004.9 |
| 20260509020736 | 7 | 313 | 0.0 | 0.0 | 0.00 | 0.00 | 0.00 | 73 | 1005.0 |
| 20260509020243 | 7 | 313 | 0.0 | 0.0 | 0.00 | 0.00 | 0.00 | 71 | 1005.1 |
| 20260509015743 | 7 | 313 | 0.0 | 0.0 | 0.00 | 0.00 | 0.00 | 72 | 1005.1 |
| 20260509015231 | 7 | 313 | 0.0 | 0.0 | 0.00 | 0.00 | 0.00 | 72 | 1005.0 |
| 20260509014719 | 7 | 313 | 0.0 | 0.0 | 0.00 | 0.00 | 0.00 | 71 | 1005.0 |
| 20260509014233 | 7 | 313 | 0.0 | 0.0 | 0.00 | 0.00 | 0.00 | 71 | 1005.0 |
| 20260509013720 | 7 | 313 | 0.0 | 0.0 | 0.00 | 0.00 | 0.00 | 72 | 1005.0 |
| 20260509013217 | 8 | 313 | 0.0 | 0.0 | 0.00 | 0.00 | 0.00 | 73 | 1005.0 |
| 20260509012740 | 7 | 312 | 0.0 | 0.0 | 0.00 | 0.00 | 0.00 | 69 | 1005.0 |
| 20260509012228 | 8 | 313 | 0.0 | 0.0 | 0.00 | 0.00 | 0.00 | 72 | 1005.0 |
| 20260509011736 | 8 | 313 | 0.0 | 0.0 | 0.00 | 0.00 | 0.00 | 69 | 1005.0 |
| 20260509011243 | 8 | 313 | 0.0 | 0.0 | 0.00 | 0.00 | 0.00 | 70 | 1005.0 |
| 20260509010731 | 8 | 313 | 0.0 | 0.0 | 0.00 | 0.00 | 0.00 | 67 | 1004.9 |
| 20260509010246 | 8 | 313 | 0.0 | 0.0 | 0.00 | 0.00 | 0.00 | 67 | 1005.0 |
| 20260509005723 | 8 | 313 | 0.0 | 0.0 | 0.00 | 0.00 | 0.00 | 66 | 1005.0 |
| 20260509005240 | 9 | 313 | 0.0 | 0.0 | 0.00 | 0.00 | 0.00 | 64 | 1005.0 |
| 20260509004744 | 9 | 313 | 0.0 | 0.0 | 0.00 | 0.00 | 0.00 | 62 | 1005.0 |
| 20260509004231 | 10 | 313 | 0.0 | 0.0 | 0.00 | 0.00 | 0.00 | 58 | 1005.0 |
| 20260509003718 | 10 | 313 | 0.0 | 0.0 | 0.00 | 0.00 | 0.00 | 51 | 1005.0 |
| 20260509003234 | 10 | 313 | 0.0 | 0.0 | 0.00 | 0.00 | 0.00 | 52 | 1005.2 |
| 20260509002732 | 10 | 313 | 0.0 | 0.0 | 0.00 | 0.00 | 0.00 | 52 | 1005.1 |
| 20260509002220 | 10 | 313 | 0.0 | 0.0 | 0.00 | 0.00 | 0.00 | 51 | 1005.2 |
| 20260509001733 | 10 | 313 | 0.0 | 0.0 | 0.00 | 0.00 | 0.00 | 51 | 1005.2 |
| 20260509001222 | 10 | 313 | 0.0 | 0.0 | 0.00 | 0.00 | 0.00 | 51 | 1005.2 |
| 20260509000717 | 10 | 313 | 0.0 | 0.0 | 0.00 | 0.00 | 0.00 | 51 | 1005.3 |
| 20260509000229 | 10 | 312 | 0.0 | 0.0 | 0.00 | 0.00 | 0.00 | 50 | 1005.3 |
| 20260508235728 | 10 | 312 | 0.0 | 0.0 | 0.00 | 0.00 | 0.00 | 50 | 1005.4 |
| 20260508235217 | 10 | 312 | 0.0 | 9.7 | 0.00 | 0.00 | 0.00 | 50 | 1005.4 |
| 20260508234733 | 10 | 312 | 6.4 | 9.7 | 0.00 | 0.00 | 0.00 | 49 | 1005.5 |
| 20260508234221 | 10 | 312 | 6.4 | 12.9 | 0.00 | 0.00 | 0.00 | 50 | 1005.5 |
| 20260508233716 | 10 | 312 | 8.0 | 12.9 | 0.00 | 0.00 | 0.00 | 50 | 1005.6 |
| 20260508233233 | 10 | 312 | 6.4 | 9.7 | 0.00 | 0.00 | 0.00 | 49 | 1005.6 |
| 20260508232731 | 10 | 312 | 4.8 | 9.7 | 0.00 | 0.00 | 0.00 | 49 | 1005.6 |
| 20260508232235 | 11 | 312 | 4.8 | 12.9 | 0.00 | 0.00 | 0.00 | 50 | 1005.6 |
| 20260508231744 | 11 | 312 | 8.0 | 12.9 | 0.00 | 0.00 | 0.00 | 49 | 1005.7 |
| 20260508231234 | 11 | 312 | 8.0 | 12.9 | 0.00 | 0.00 | 0.00 | 49 | 1005.6 |
| 20260508230719 | 11 | 312 | 6.4 | 12.9 | 0.00 | 0.00 | 0.00 | 51 | 1005.6 |
| 20260508230236 | 11 | 311 | 4.8 | 14.5 | 0.00 | 0.00 | 0.00 | 49 | 1005.5 |
| 20260508225737 | 11 | 310 | 8.0 | 14.5 | 0.00 | 0.00 | 0.00 | 49 | 1005.6 |
| 20260508225245 | 11 | 293 | 6.4 | 11.3 | 0.00 | 0.00 | 0.00 | 48 | 1005.6 |
| 20260508224731 | 11 | 292 | 6.4 | 16.1 | 0.00 | 0.00 | 0.00 | 48 | 1005.6 |
| 20260508224236 | 11 | 292 | 11.3 | 17.7 | 0.00 | 0.00 | 0.00 | 47 | 1005.7 |
| 20260508223745 | 11 | 298 | 12.9 | 17.7 | 0.00 | 0.00 | 0.00 | 49 | 1005.6 |
| 20260508223232 | 11 | 309 | 8.0 | 16.1 | 0.00 | 0.00 | 0.00 | 48 | 1005.7 |
| 20260508222731 | 11 | 292 | 12.9 | 16.1 | 0.00 | 0.00 | 0.00 | 50 | 1005.7 |
| 20260508222218 | 11 | 306 | 0.0 | 0.0 | 0.00 | 0.00 | 0.00 | 50 | 1005.7 |
| 20260508221732 | 11 | 305 | 0.0 | 0.0 | 0.00 | 0.00 | 0.00 | 50 | 1005.8 |
| 20260508221221 | 11 | 299 | 0.0 | 0.0 | 0.00 | 0.00 | 0.00 | 51 | 1005.9 |
| 20260508220736 | 11 | 300 | 0.0 | 9.7 | 0.00 | 0.00 | 0.00 | 53 | 1006.0 |
| 20260508220237 | 11 | 301 | 0.0 | 14.5 | 0.00 | 0.00 | 0.00 | 52 | 1006.1 |
| 20260508215719 | 11 | 298 | 6.4 | 12.9 | 0.00 | 0.00 | 0.00 | 52 | 1006.1 |
| 20260508215235 | 11 | 315 | 4.8 | 9.7 | 0.00 | 0.00 | 0.00 | 53 | 1006.1 |
| 20260508214718 | 10 | 315 | 6.4 | 12.9 | 0.00 | 0.00 | 0.00 | 57 | 1006.1 |
| 20260508214234 | 10 | 317 | 8.0 | 12.9 | 0.00 | 0.00 | 0.00 | 58 | 1006.2 |
| 20260508213724 | 10 | 329 | 4.8 | 9.7 | 0.00 | 0.00 | 0.00 | 59 | 1006.2 |
| 20260508213238 | 10 | 342 | 3.2 | 14.5 | 0.00 | 0.00 | 0.00 | 61 | 1006.2 |
| 20260508212736 | 10 | 342 | 9.7 | 14.5 | 0.00 | 0.00 | 0.00 | 59 | 1006.3 |
| 20260508212240 | 10 | 336 | 8.0 | 16.1 | 0.00 | 0.00 | 0.00 | 58 | 1006.4 |
| 20260508211730 | 10 | 335 | 8.0 | 17.7 | 0.00 | 0.00 | 0.00 | 57 | 1006.4 |
| 20260508211239 | 11 | 315 | 8.0 | 17.7 | 0.00 | 0.00 | 0.00 | 57 | 1006.4 |
| 20260508210728 | 11 | 314 | 11.3 | 14.5 | 0.00 | 0.00 | 0.00 | 56 | 1006.5 |
| 20260508210236 | 11 | 301 | 9.7 | 17.7 | 0.00 | 0.00 | 0.00 | 59 | 1006.4 |
| 20260508205717 | 10 | 306 | 11.3 | 16.1 | 0.00 | 0.00 | 0.00 | 58 | 1006.6 |
| 20260508205233 | 10 | 308 | 6.4 | 16.1 | 0.00 | 0.00 | 0.00 | 59 | 1006.6 |
| 20260508204720 | 10 | 315 | 6.4 | 17.7 | 0.00 | 0.00 | 0.00 | 60 | 1006.6 |
| 20260508204231 | 10 | 308 | 9.7 | 17.7 | 0.00 | 0.00 | 0.00 | 61 | 1006.7 |
| 20260508203720 | 10 | 311 | 9.7 | 16.1 | 0.00 | 0.00 | 0.00 | 63 | 1006.8 |
| 20260508203237 | 10 | 318 | 11.3 | 16.1 | 0.00 | 0.00 | 0.00 | 63 | 1006.9 |
| 20260508202732 | 9 | 306 | 9.7 | 17.7 | 0.00 | 0.00 | 0.00 | 63 | 1007.0 |
| 20260508202220 | 9 | 317 | 14.5 | 17.7 | 0.00 | 0.00 | 0.00 | 66 | 1007.0 |
| 20260508201716 | 9 | 300 | 9.7 | 17.7 | 0.00 | 0.00 | 0.00 | 69 | 1007.0 |
| 20260508201233 | 8 | 305 | 11.3 | 19.3 | 0.00 | 0.00 | 0.00 | 71 | 1007.1 |
| 20260508200722 | 8 | 302 | 14.5 | 19.3 | 0.00 | 0.00 | 0.00 | 71 | 1007.3 |
| 20260508200239 | 8 | 293 | 11.3 | 20.9 | 0.00 | 0.00 | 0.00 | 72 | 1007.3 |
| 20260508195733 | 8 | 300 | 12.9 | 20.9 | 0.00 | 0.00 | 0.00 | 73 | 1007.3 |
| 20260508195240 | 8 | 302 | 14.5 | 20.9 | 0.00 | 0.00 | 0.00 | 74 | 1007.4 |
| 20260508194728 | 8 | 308 | 14.5 | 22.5 | 0.00 | 0.00 | 0.00 | 76 | 1007.5 |
| 20260508194236 | 8 | 302 | 14.5 | 22.5 | 0.00 | 0.00 | 0.00 | 76 | 1007.6 |
| 20260508193725 | 8 | 295 | 16.1 | 20.9 | 0.00 | 0.00 | 0.00 | 76 | 1007.6 |
| 20260508193241 | 8 | 300 | 12.9 | 22.5 | 0.00 | 0.00 | 0.00 | 76 | 1007.7 |
| 20260508192721 | 8 | 291 | 11.3 | 22.5 | 0.00 | 0.00 | 0.00 | 78 | 1007.8 |
| 20260508192236 | 8 | 310 | 17.7 | 22.5 | 0.00 | 0.00 | 0.00 | 77 | 1007.8 |
| 20260508191738 | 8 | 309 | 16.1 | 25.7 | 0.00 | 0.00 | 0.00 | 76 | 1007.9 |
| 20260508191244 | 8 | 298 | 17.7 | 24.1 | 0.00 | 0.00 | 0.00 | 77 | 1007.9 |
| 20260508190732 | 7 | 281 | 16.1 | 25.7 | 0.00 | 0.00 | 0.00 | 78 | 1007.9 |
| 20260508190239 | 7 | 287 | 17.7 | 27.4 | 0.00 | 0.00 | 0.00 | 78 | 1007.9 |
| 20260508185718 | 7 | 296 | 19.3 | 27.4 | 0.00 | 0.00 | 0.00 | 78 | 1007.8 |
| 20260508185235 | 7 | 307 | 16.1 | 27.4 | 0.00 | 0.00 | 0.00 | 78 | 1007.8 |
| 20260508184738 | 7 | 310 | 17.7 | 27.4 | 0.00 | 0.00 | 0.00 | 77 | 1007.9 |
| 20260508184238 | 8 | 288 | 17.7 | 27.4 | 0.00 | 0.00 | 0.00 | 75 | 1007.9 |
| 20260508183743 | 8 | 295 | 17.7 | 27.4 | 0.00 | 0.00 | 0.00 | 75 | 1007.9 |
| 20260508183246 | 8 | 285 | 17.7 | 25.7 | 0.00 | 0.00 | 0.00 | 74 | 1007.9 |
| 20260508182738 | 8 | 282 | 17.7 | 29.0 | 0.00 | 0.00 | 0.00 | 73 | 1007.9 |
| 20260508182240 | 8 | 297 | 17.7 | 29.0 | 0.00 | 0.00 | 0.00 | 73 | 1007.9 |
| 20260508181723 | 8 | 286 | 17.7 | 32.2 | 0.00 | 0.00 | 0.00 | 73 | 1007.9 |
| 20260508181236 | 8 | 300 | 19.3 | 32.2 | 0.00 | 0.00 | 0.00 | 73 | 1007.9 |
| 20260508180736 | 8 | 303 | 19.3 | 27.4 | 0.00 | 0.00 | 0.00 | 74 | 1008.0 |
| 20260508180239 | 8 | 308 | 16.1 | 24.1 | 0.00 | 0.00 | 0.00 | 72 | 1008.1 |
| 20260508175733 | 8 | 300 | 12.9 | 22.5 | 0.00 | 0.00 | 0.00 | 72 | 1008.1 |
| 20260508175237 | 8 | 290 | 12.9 | 25.7 | 0.00 | 0.00 | 0.00 | 73 | 1008.1 |
| 20260508174722 | 8 | 314 | 12.9 | 22.5 | 0.00 | 0.00 | 0.00 | 72 | 1008.1 |
| 20260508174236 | 8 | 323 | 12.9 | 25.7 | 0.00 | 0.00 | 0.00 | 71 | 1008.2 |
| 20260508173739 | 8 | 293 | 19.3 | 27.4 | 0.00 | 0.00 | 0.00 | 71 | 1008.2 |
| 20260508173220 | 8 | 293 | 17.7 | 27.4 | 0.00 | 0.00 | 0.00 | 70 | 1008.2 |
| 20260508172739 | 8 | 319 | 12.9 | 22.5 | 0.00 | 0.00 | 0.00 | 70 | 1008.3 |
| 20260508172246 | 8 | 277 | 12.9 | 24.1 | 0.00 | 0.00 | 0.00 | 68 | 1008.3 |
| 20260508171727 | 8 | 313 | 14.5 | 25.7 | 0.00 | 0.00 | 0.00 | 67 | 1008.3 |
| 20260508171242 | 8 | 304 | 17.7 | 25.7 | 0.00 | 0.00 | 0.00 | 67 | 1008.4 |
| 20260508170728 | 8 | 295 | 14.5 | 24.1 | 0.00 | 0.00 | 0.00 | 66 | 1008.4 |
| 20260508170241 | 8 | 316 | 12.9 | 25.7 | 0.00 | 0.00 | 0.00 | 66 | 1008.5 |
| 20260508165740 | 8 | 306 | 16.1 | 25.7 | 0.00 | 0.00 | 0.00 | 67 | 1008.4 |
| 20260508165218 | 8 | 298 | 14.5 | 20.9 | 0.00 | 0.00 | 0.00 | 67 | 1008.5 |
| 20260508164732 | 9 | 300 | 14.5 | 24.1 | 0.00 | 0.00 | 0.00 | 65 | 1008.6 |
| 20260508164217 | 9 | 296 | 17.7 | 27.4 | 0.00 | 0.00 | 0.00 | 66 | 1008.7 |
| 20260508163730 | 9 | 306 | 17.7 | 27.4 | 0.00 | 0.00 | 0.00 | 65 | 1008.7 |
| 20260508163240 | 9 | 324 | 17.7 | 27.4 | 0.00 | 0.00 | 0.00 | 64 | 1008.7 |
| 20260508162730 | 9 | 295 | 16.1 | 24.1 | 0.00 | 0.00 | 0.00 | 65 | 1008.8 |
| 20260508162240 | 9 | 316 | 16.1 | 24.1 | 0.00 | 0.00 | 0.00 | 65 | 1008.8 |
| 20260508161724 | 10 | 293 | 11.3 | 24.1 | 0.00 | 0.00 | 0.00 | 63 | 1008.8 |
| 20260508161232 | 10 | 284 | 14.5 | 24.1 | 0.00 | 0.00 | 0.00 | 63 | 1008.8 |
| 20260508160734 | 9 | 292 | 14.5 | 22.5 | 0.00 | 0.00 | 0.00 | 64 | 1008.8 |
| 20260508160218 | 9 | 304 | 11.3 | 19.3 | 0.00 | 0.00 | 0.00 | 67 | 1008.9 |
| 20260508155723 | 9 | 306 | 11.3 | 22.5 | 0.00 | 0.00 | 0.00 | 67 | 1009.0 |
| 20260508155236 | 9 | 309 | 16.1 | 22.5 | 0.00 | 0.00 | 0.00 | 68 | 1009.0 |
| 20260508154720 | 9 | 307 | 14.5 | 19.3 | 0.00 | 0.00 | 0.00 | 67 | 1009.0 |
| 20260508154236 | 8 | 338 | 12.9 | 19.3 | 0.00 | 0.00 | 0.00 | 67 | 1009.0 |
| 20260508153735 | 8 | 285 | 12.9 | 19.3 | 0.00 | 0.00 | 0.00 | 67 | 1009.1 |
| 20260508153241 | 8 | 309 | 12.9 | 19.3 | 0.00 | 0.00 | 0.00 | 69 | 1009.2 |
| 20260508152719 | 8 | 315 | 12.9 | 19.3 | 0.00 | 0.00 | 0.00 | 68 | 1009.2 |
| 20260508152235 | 8 | 325 | 9.7 | 16.1 | 0.00 | 0.00 | 0.00 | 68 | 1009.2 |
| 20260508151739 | 8 | 324 | 11.3 | 16.1 | 0.00 | 0.00 | 0.00 | 67 | 1009.3 |
| 20260508151225 | 8 | 316 | 12.9 | 16.1 | 0.00 | 0.00 | 0.00 | 68 | 1009.3 |
| 20260508150740 | 8 | 323 | 11.3 | 16.1 | 0.00 | 0.00 | 0.00 | 68 | 1009.3 |
| 20260508150244 | 8 | 315 | 11.3 | 16.1 | 0.00 | 0.00 | 0.00 | 66 | 1009.3 |
| 20260508145737 | 8 | 311 | 9.7 | 17.7 | 0.00 | 0.00 | 0.00 | 66 | 1009.3 |
| 20260508145244 | 9 | 306 | 12.9 | 17.7 | 0.00 | 0.00 | 0.00 | 64 | 1009.2 |
| 20260508144731 | 10 | 286 | 11.3 | 20.9 | 0.00 | 0.00 | 0.00 | 64 | 1009.3 |
| 20260508144235 | 10 | 286 | 12.9 | 20.9 | 0.00 | 0.00 | 0.00 | 65 | 1009.4 |
| 20260508143721 | 9 | 273 | 9.7 | 16.1 | 0.00 | 0.00 | 0.00 | 67 | 1009.3 |
| 20260508143236 | 9 | 291 | 4.8 | 22.5 | 0.00 | 0.00 | 0.00 | 68 | 1009.3 |
| 20260508142736 | 8 | 301 | 0.0 | 24.1 | 0.00 | 0.00 | 0.00 | 68 | 1009.3 |
| 20260508142220 | 8 | 274 | 9.7 | 22.5 | 0.00 | 0.00 | 0.00 | 66 | 1009.3 |
| 20260508141730 | 8 | 247 | 17.7 | 22.5 | 0.00 | 0.00 | 0.00 | 67 | 1009.5 |
| 20260508141217 | 8 | 249 | 11.3 | 25.7 | 0.00 | 0.00 | 0.00 | 68 | 1009.5 |
| 20260508140732 | 8 | 242 | 9.7 | 25.7 | 0.00 | 0.00 | 0.00 | 67 | 1009.5 |
| 20260508140246 | 8 | 240 | 11.3 | 19.3 | 0.00 | 0.00 | 0.00 | 67 | 1009.6 |
| 20260508135721 | 8 | 232 | 12.9 | 17.7 | 0.00 | 0.00 | 0.00 | 65 | 1009.6 |
| 20260508135237 | 8 | 237 | 9.7 | 16.1 | 0.00 | 0.00 | 0.00 | 69 | 1009.5 |
| 20260508134723 | 8 | 221 | 8.0 | 19.3 | 0.00 | 0.00 | 0.00 | 69 | 1009.6 |
| 20260508134236 | 7 | 222 | 12.9 | 19.3 | 0.00 | 0.00 | 0.00 | 70 | 1009.5 |
| 20260508133718 | 7 | 229 | 8.0 | 16.1 | 0.00 | 0.00 | 0.00 | 72 | 1009.6 |
| 20260508133232 | 7 | 218 | 11.3 | 17.7 | 0.00 | 0.00 | 0.00 | 71 | 1009.6 |
| 20260508132729 | 7 | 212 | 0.0 | 9.7 | 0.00 | 0.00 | 0.00 | 72 | 1009.7 |
| 20260508132234 | 6 | 198 | 0.0 | 9.7 | 0.00 | 0.00 | 0.00 | 76 | 1009.7 |
| 20260508131721 | 6 | 227 | 4.8 | 9.7 | 0.00 | 0.00 | 0.00 | 77 | 1009.7 |
| 20260508131236 | 6 | 169 | 0.0 | 0.0 | 0.00 | 0.00 | 0.00 | 78 | 1009.7 |
| 20260508130722 | 5 | 177 | 0.0 | 0.0 | 0.00 | 0.00 | 0.00 | 77 | 1009.7 |
| 20260508130217 | 5 | 126 | 0.0 | 0.0 | 0.00 | 0.00 | 0.00 | 79 | 1009.8 |
| 20260508125739 | 5 | 130 | 0.0 | 0.0 | 0.00 | 0.00 | 0.00 | 79 | 1009.8 |
| 20260508125245 | 5 | 128 | 0.0 | 0.0 | 0.00 | 0.00 | 0.00 | 79 | 1009.9 |
| 20260508124731 | 4 | 128 | 0.0 | 0.0 | 0.00 | 0.00 | 0.00 | 81 | 1009.9 |
| 20260508124239 | 4 | 130 | 0.0 | 0.0 | 0.00 | 0.00 | 0.00 | 80 | 1009.9 |